Tracking 30995 objects as of 7-Jul-2025
HD Live streaming from Space Station
objects crossing your sky now

INTELSAT 2-F4

Track INTELSAT 2-F4 now!
INTELSAT 2-F4 is classified as:


NORAD ID: 2969
Int'l Code: 1967-094A
Perigee: 35,742.9 km
Apogee: 35,837.6 km
Inclination: 3.2 °
Period: 1,435.9 minutes
Semi major axis: 42161 km
RCS: 2.5118 m2 (large)
Launch date: September 28, 1967
Source: International Telecommunications Satellite Organization (ITSO)
Launch site: AIR FORCE EASTERN TEST RANGE (AFETR)
Your satellite tracking list
Your tracking list is empty




NASA's NSSDC Master Catalog

Two Line Element Set (TLE):
1 02969U 67094A   25187.53041035  .00000119  00000-0  00000-0 0  9997
2 02969   3.1948  77.7580 0011231 128.2317  99.5848  1.00284237111844
Source of the keplerian elements: AFSPC